Index of /20260427/WXO-DD/model_rdps/10km/18/035
Name Last modified Size Description
Parent Directory -
20260427T18Z_MSC_RDPS_AbsoluteVorticity_IsbL-0250_RLatLon0.09_PT035H.grib2 2026-04-27 20:49 630K
20260427T18Z_MSC_RDPS_AbsoluteVorticity_IsbL-0500_RLatLon0.09_PT035H.grib2 2026-04-27 20:49 571K
20260427T18Z_MSC_RDPS_AbsoluteVorticity_IsbL-0700_RLatLon0.09_PT035H.grib2 2026-04-27 20:49 618K
20260427T18Z_MSC_RDPS_AbsoluteVorticity_IsbL-0850_RLatLon0.09_PT035H.grib2 2026-04-27 20:49 771K
20260427T18Z_MSC_RDPS_AirTemp_AGL-120m_RLatLon0.09_PT035H.grib2 2026-04-27 20:49 385K
20260427T18Z_MSC_RDPS_AirTemp_AGL-2m_RLatLon0.09_PT035H.grib2 2026-04-27 20:49 618K
20260427T18Z_MSC_RDPS_AirTemp_AGL-40m_RLatLon0.09_PT035H.grib2 2026-04-27 20:49 401K
20260427T18Z_MSC_RDPS_AirTemp_AGL-80m_RLatLon0.09_PT035H.grib2 2026-04-27 20:49 392K
20260427T18Z_MSC_RDPS_AirTemp_IsbL-0001_RLatLon0.09_PT035H.grib2 2026-04-27 20:49 301K
20260427T18Z_MSC_RDPS_AirTemp_IsbL-0005_RLatLon0.09_PT035H.grib2 2026-04-27 20:49 296K
20260427T18Z_MSC_RDPS_AirTemp_IsbL-0010_RLatLon0.09_PT035H.grib2 2026-04-27 20:49 305K
20260427T18Z_MSC_RDPS_AirTemp_IsbL-0020_RLatLon0.09_PT035H.grib2 2026-04-27 20:49 318K
20260427T18Z_MSC_RDPS_AirTemp_IsbL-0030_RLatLon0.09_PT035H.grib2 2026-04-27 20:49 339K
20260427T18Z_MSC_RDPS_AirTemp_IsbL-0050_RLatLon0.09_PT035H.grib2 2026-04-27 20:49 317K
20260427T18Z_MSC_RDPS_AirTemp_IsbL-0100_RLatLon0.09_PT035H.grib2 2026-04-27 20:49 432K
20260427T18Z_MSC_RDPS_AirTemp_IsbL-0150_RLatLon0.09_PT035H.grib2 2026-04-27 20:49 432K
20260427T18Z_MSC_RDPS_AirTemp_IsbL-0175_RLatLon0.09_PT035H.grib2 2026-04-27 20:49 419K
20260427T18Z_MSC_RDPS_AirTemp_IsbL-0200_RLatLon0.09_PT035H.grib2 2026-04-27 20:49 423K
20260427T18Z_MSC_RDPS_AirTemp_IsbL-0225_RLatLon0.09_PT035H.grib2 2026-04-27 20:49 425K
20260427T18Z_MSC_RDPS_AirTemp_IsbL-0250_RLatLon0.09_PT035H.grib2 2026-04-27 20:49 434K
20260427T18Z_MSC_RDPS_AirTemp_IsbL-0275_RLatLon0.09_PT035H.grib2 2026-04-27 20:49 416K
20260427T18Z_MSC_RDPS_AirTemp_IsbL-0300_RLatLon0.09_PT035H.grib2 2026-04-27 20:49 421K
20260427T18Z_MSC_RDPS_AirTemp_IsbL-0350_RLatLon0.09_PT035H.grib2 2026-04-27 20:49 431K
20260427T18Z_MSC_RDPS_AirTemp_IsbL-0400_RLatLon0.09_PT035H.grib2 2026-04-27 20:49 431K
20260427T18Z_MSC_RDPS_AirTemp_IsbL-0450_RLatLon0.09_PT035H.grib2 2026-04-27 20:49 437K
20260427T18Z_MSC_RDPS_AirTemp_IsbL-0500_RLatLon0.09_PT035H.grib2 2026-04-27 20:49 411K
20260427T18Z_MSC_RDPS_AirTemp_IsbL-0550_RLatLon0.09_PT035H.grib2 2026-04-27 20:49 429K
20260427T18Z_MSC_RDPS_AirTemp_IsbL-0600_RLatLon0.09_PT035H.grib2 2026-04-27 20:49 445K
20260427T18Z_MSC_RDPS_AirTemp_IsbL-0650_RLatLon0.09_PT035H.grib2 2026-04-27 20:49 459K
20260427T18Z_MSC_RDPS_AirTemp_IsbL-0700_RLatLon0.09_PT035H.grib2 2026-04-27 20:49 376K
20260427T18Z_MSC_RDPS_AirTemp_IsbL-0750_RLatLon0.09_PT035H.grib2 2026-04-27 20:49 406K
20260427T18Z_MSC_RDPS_AirTemp_IsbL-0800_RLatLon0.09_PT035H.grib2 2026-04-27 20:49 449K
20260427T18Z_MSC_RDPS_AirTemp_IsbL-0850_RLatLon0.09_PT035H.grib2 2026-04-27 20:49 497K
20260427T18Z_MSC_RDPS_AirTemp_IsbL-0875_RLatLon0.09_PT035H.grib2 2026-04-27 20:49 515K
20260427T18Z_MSC_RDPS_AirTemp_IsbL-0900_RLatLon0.09_PT035H.grib2 2026-04-27 20:49 525K
20260427T18Z_MSC_RDPS_AirTemp_IsbL-0925_RLatLon0.09_PT035H.grib2 2026-04-27 20:49 521K
20260427T18Z_MSC_RDPS_AirTemp_IsbL-0950_RLatLon0.09_PT035H.grib2 2026-04-27 20:49 522K
20260427T18Z_MSC_RDPS_AirTemp_IsbL-0970_RLatLon0.09_PT035H.grib2 2026-04-27 20:49 512K
20260427T18Z_MSC_RDPS_AirTemp_IsbL-0985_RLatLon0.09_PT035H.grib2 2026-04-27 20:49 498K
20260427T18Z_MSC_RDPS_AirTemp_IsbL-1000_RLatLon0.09_PT035H.grib2 2026-04-27 20:49 480K
20260427T18Z_MSC_RDPS_AirTemp_IsbL-1015_RLatLon0.09_PT035H.grib2 2026-04-27 20:49 479K
20260427T18Z_MSC_RDPS_Albedo_Sfc_RLatLon0.09_PT035H.grib2 2026-04-27 20:49 159K
20260427T18Z_MSC_RDPS_CAPE_Sfc_RLatLon0.09_PT035H.grib2 2026-04-27 20:49 1.6M
20260427T18Z_MSC_RDPS_CIN_Sfc_RLatLon0.09_PT035H.grib2 2026-04-27 20:49 1.1M
20260427T18Z_MSC_RDPS_CloudWater_EAtm_RLatLon0.09_PT035H.grib2 2026-04-27 20:49 219K
20260427T18Z_MSC_RDPS_ConvectivePrecip-Accum_Sfc_RLatLon0.09_PT035H.grib2 2026-04-27 20:49 1.0M
20260427T18Z_MSC_RDPS_DewPointDepression_AGL-2m_RLatLon0.09_PT035H.grib2 2026-04-27 20:49 389K
20260427T18Z_MSC_RDPS_DewPointDepression_IsbL-0001_RLatLon0.09_PT035H.grib2 2026-04-27 20:49 193
20260427T18Z_MSC_RDPS_DewPointDepression_IsbL-0005_RLatLon0.09_PT035H.grib2 2026-04-27 20:49 193
20260427T18Z_MSC_RDPS_DewPointDepression_IsbL-0010_RLatLon0.09_PT035H.grib2 2026-04-27 20:49 193
20260427T18Z_MSC_RDPS_DewPointDepression_IsbL-0020_RLatLon0.09_PT035H.grib2 2026-04-27 20:49 193
20260427T18Z_MSC_RDPS_DewPointDepression_IsbL-0030_RLatLon0.09_PT035H.grib2 2026-04-27 20:49 193
20260427T18Z_MSC_RDPS_DewPointDepression_IsbL-0050_RLatLon0.09_PT035H.grib2 2026-04-27 20:49 85K
20260427T18Z_MSC_RDPS_DewPointDepression_IsbL-0100_RLatLon0.09_PT035H.grib2 2026-04-27 20:49 131K
20260427T18Z_MSC_RDPS_DewPointDepression_IsbL-0150_RLatLon0.09_PT035H.grib2 2026-04-27 20:49 153K
20260427T18Z_MSC_RDPS_DewPointDepression_IsbL-0175_RLatLon0.09_PT035H.grib2 2026-04-27 20:49 178K
20260427T18Z_MSC_RDPS_DewPointDepression_IsbL-0200_RLatLon0.09_PT035H.grib2 2026-04-27 20:49 214K
20260427T18Z_MSC_RDPS_DewPointDepression_IsbL-0225_RLatLon0.09_PT035H.grib2 2026-04-27 20:49 265K
20260427T18Z_MSC_RDPS_DewPointDepression_IsbL-0250_RLatLon0.09_PT035H.grib2 2026-04-27 20:49 304K
20260427T18Z_MSC_RDPS_DewPointDepression_IsbL-0275_RLatLon0.09_PT035H.grib2 2026-04-27 20:49 310K
20260427T18Z_MSC_RDPS_DewPointDepression_IsbL-0300_RLatLon0.09_PT035H.grib2 2026-04-27 20:49 330K
20260427T18Z_MSC_RDPS_DewPointDepression_IsbL-0350_RLatLon0.09_PT035H.grib2 2026-04-27 20:49 333K
20260427T18Z_MSC_RDPS_DewPointDepression_IsbL-0400_RLatLon0.09_PT035H.grib2 2026-04-27 20:49 341K
20260427T18Z_MSC_RDPS_DewPointDepression_IsbL-0450_RLatLon0.09_PT035H.grib2 2026-04-27 20:49 348K
20260427T18Z_MSC_RDPS_DewPointDepression_IsbL-0500_RLatLon0.09_PT035H.grib2 2026-04-27 20:49 357K
20260427T18Z_MSC_RDPS_DewPointDepression_IsbL-0550_RLatLon0.09_PT035H.grib2 2026-04-27 20:49 367K
20260427T18Z_MSC_RDPS_DewPointDepression_IsbL-0600_RLatLon0.09_PT035H.grib2 2026-04-27 20:49 375K
20260427T18Z_MSC_RDPS_DewPointDepression_IsbL-0650_RLatLon0.09_PT035H.grib2 2026-04-27 20:49 379K
20260427T18Z_MSC_RDPS_DewPointDepression_IsbL-0700_RLatLon0.09_PT035H.grib2 2026-04-27 20:49 393K
20260427T18Z_MSC_RDPS_DewPointDepression_IsbL-0750_RLatLon0.09_PT035H.grib2 2026-04-27 20:49 412K
20260427T18Z_MSC_RDPS_DewPointDepression_IsbL-0800_RLatLon0.09_PT035H.grib2 2026-04-27 20:49 441K
20260427T18Z_MSC_RDPS_DewPointDepression_IsbL-0850_RLatLon0.09_PT035H.grib2 2026-04-27 20:49 467K
20260427T18Z_MSC_RDPS_DewPointDepression_IsbL-0875_RLatLon0.09_PT035H.grib2 2026-04-27 20:49 468K
20260427T18Z_MSC_RDPS_DewPointDepression_IsbL-0900_RLatLon0.09_PT035H.grib2 2026-04-27 20:49 463K
20260427T18Z_MSC_RDPS_DewPointDepression_IsbL-0925_RLatLon0.09_PT035H.grib2 2026-04-27 20:49 450K
20260427T18Z_MSC_RDPS_DewPointDepression_IsbL-0950_RLatLon0.09_PT035H.grib2 2026-04-27 20:49 442K
20260427T18Z_MSC_RDPS_DewPointDepression_IsbL-0970_RLatLon0.09_PT035H.grib2 2026-04-27 20:49 430K
20260427T18Z_MSC_RDPS_DewPointDepression_IsbL-0985_RLatLon0.09_PT035H.grib2 2026-04-27 20:49 422K
20260427T18Z_MSC_RDPS_DewPointDepression_IsbL-1000_RLatLon0.09_PT035H.grib2 2026-04-27 20:49 416K
20260427T18Z_MSC_RDPS_DewPointDepression_IsbL-1015_RLatLon0.09_PT035H.grib2 2026-04-27 20:49 408K
20260427T18Z_MSC_RDPS_DewPoint_AGL-2m_RLatLon0.09_PT035H.grib2 2026-04-27 20:49 302K
20260427T18Z_MSC_RDPS_DownwardLongwaveRadiationFlux-Accum_Sfc_RLatLon0.09_PT035H.grib2 2026-04-27 20:49 372K
20260427T18Z_MSC_RDPS_DownwardShortwaveRadiationFlux-Accum_NTAtm_RLatLon0.09_PT035H.grib2 2026-04-27 20:49 92K
20260427T18Z_MSC_RDPS_DownwardShortwaveRadiationFlux-Accum_Sfc_RLatLon0.09_PT035H.grib2 2026-04-27 20:49 517K
20260427T18Z_MSC_RDPS_FreezingRain-Accum1h_Sfc_RLatLon0.09_PT035H.grib2 2026-04-27 20:49 28K
20260427T18Z_MSC_RDPS_FreezingRain-Accum_Sfc_RLatLon0.09_PT035H.grib2 2026-04-27 20:49 128K
20260427T18Z_MSC_RDPS_GeopotentialHeight_IsbL-0001_RLatLon0.09_PT035H.grib2 2026-04-27 20:49 271K
20260427T18Z_MSC_RDPS_GeopotentialHeight_IsbL-0005_RLatLon0.09_PT035H.grib2 2026-04-27 20:49 338K
20260427T18Z_MSC_RDPS_GeopotentialHeight_IsbL-0010_RLatLon0.09_PT035H.grib2 2026-04-27 20:49 305K
20260427T18Z_MSC_RDPS_GeopotentialHeight_IsbL-0020_RLatLon0.09_PT035H.grib2 2026-04-27 20:49 304K
20260427T18Z_MSC_RDPS_GeopotentialHeight_IsbL-0030_RLatLon0.09_PT035H.grib2 2026-04-27 20:49 306K
20260427T18Z_MSC_RDPS_GeopotentialHeight_IsbL-0050_RLatLon0.09_PT035H.grib2 2026-04-27 20:49 340K
20260427T18Z_MSC_RDPS_GeopotentialHeight_IsbL-0100_RLatLon0.09_PT035H.grib2 2026-04-27 20:49 288K
20260427T18Z_MSC_RDPS_GeopotentialHeight_IsbL-0150_RLatLon0.09_PT035H.grib2 2026-04-27 20:49 230K
20260427T18Z_MSC_RDPS_GeopotentialHeight_IsbL-0175_RLatLon0.09_PT035H.grib2 2026-04-27 20:49 264K
20260427T18Z_MSC_RDPS_GeopotentialHeight_IsbL-0200_RLatLon0.09_PT035H.grib2 2026-04-27 20:49 267K
20260427T18Z_MSC_RDPS_GeopotentialHeight_IsbL-0225_RLatLon0.09_PT035H.grib2 2026-04-27 20:49 268K
20260427T18Z_MSC_RDPS_GeopotentialHeight_IsbL-0250_RLatLon0.09_PT035H.grib2 2026-04-27 20:49 269K
20260427T18Z_MSC_RDPS_GeopotentialHeight_IsbL-0275_RLatLon0.09_PT035H.grib2 2026-04-27 20:49 267K
20260427T18Z_MSC_RDPS_GeopotentialHeight_IsbL-0300_RLatLon0.09_PT035H.grib2 2026-04-27 20:49 267K
20260427T18Z_MSC_RDPS_GeopotentialHeight_IsbL-0350_RLatLon0.09_PT035H.grib2 2026-04-27 20:49 234K
20260427T18Z_MSC_RDPS_GeopotentialHeight_IsbL-0400_RLatLon0.09_PT035H.grib2 2026-04-27 20:49 230K
20260427T18Z_MSC_RDPS_GeopotentialHeight_IsbL-0450_RLatLon0.09_PT035H.grib2 2026-04-27 20:49 226K
20260427T18Z_MSC_RDPS_GeopotentialHeight_IsbL-0500_RLatLon0.09_PT035H.grib2 2026-04-27 20:49 293K
20260427T18Z_MSC_RDPS_GeopotentialHeight_IsbL-0550_RLatLon0.09_PT035H.grib2 2026-04-27 20:49 289K
20260427T18Z_MSC_RDPS_GeopotentialHeight_IsbL-0600_RLatLon0.09_PT035H.grib2 2026-04-27 20:49 284K
20260427T18Z_MSC_RDPS_GeopotentialHeight_IsbL-0650_RLatLon0.09_PT035H.grib2 2026-04-27 20:49 254K
20260427T18Z_MSC_RDPS_GeopotentialHeight_IsbL-0700_RLatLon0.09_PT035H.grib2 2026-04-27 20:49 253K
20260427T18Z_MSC_RDPS_GeopotentialHeight_IsbL-0750_RLatLon0.09_PT035H.grib2 2026-04-27 20:49 336K
20260427T18Z_MSC_RDPS_GeopotentialHeight_IsbL-0800_RLatLon0.09_PT035H.grib2 2026-04-27 20:49 343K
20260427T18Z_MSC_RDPS_GeopotentialHeight_IsbL-0850_RLatLon0.09_PT035H.grib2 2026-04-27 20:49 353K
20260427T18Z_MSC_RDPS_GeopotentialHeight_IsbL-0875_RLatLon0.09_PT035H.grib2 2026-04-27 20:49 356K
20260427T18Z_MSC_RDPS_GeopotentialHeight_IsbL-0900_RLatLon0.09_PT035H.grib2 2026-04-27 20:49 360K
20260427T18Z_MSC_RDPS_GeopotentialHeight_IsbL-0925_RLatLon0.09_PT035H.grib2 2026-04-27 20:49 363K
20260427T18Z_MSC_RDPS_GeopotentialHeight_IsbL-0950_RLatLon0.09_PT035H.grib2 2026-04-27 20:49 368K
20260427T18Z_MSC_RDPS_GeopotentialHeight_IsbL-0970_RLatLon0.09_PT035H.grib2 2026-04-27 20:49 374K
20260427T18Z_MSC_RDPS_GeopotentialHeight_IsbL-0985_RLatLon0.09_PT035H.grib2 2026-04-27 20:49 381K
20260427T18Z_MSC_RDPS_GeopotentialHeight_IsbL-1000_RLatLon0.09_PT035H.grib2 2026-04-27 20:49 391K
20260427T18Z_MSC_RDPS_GeopotentialHeight_IsbL-1015_RLatLon0.09_PT035H.grib2 2026-04-27 20:49 405K
20260427T18Z_MSC_RDPS_Humidex_Sfc_RLatLon0.09_PT035H.grib2 2026-04-27 20:49 2.4M
20260427T18Z_MSC_RDPS_IcePellets-Accum1h_Sfc_RLatLon0.09_PT035H.grib2 2026-04-27 20:49 5.4K
20260427T18Z_MSC_RDPS_IcePellets-Accum_Sfc_RLatLon0.09_PT035H.grib2 2026-04-27 20:49 22K
20260427T18Z_MSC_RDPS_KIndex_Sfc_RLatLon0.09_PT035H.grib2 2026-04-27 20:49 2.5M
20260427T18Z_MSC_RDPS_LatentHeatNetFlux_Sfc_RLatLon0.09_PT035H.grib2 2026-04-27 20:49 397K
20260427T18Z_MSC_RDPS_LiftedIndex-MU-VT_IsbL-0500_RLatLon0.09_PT035H.grib2 2026-04-27 20:49 2.4M
20260427T18Z_MSC_RDPS_NetLongwaveRadiationFlux-Accum_Sfc_RLatLon0.09_PT035H.grib2 2026-04-27 20:49 501K
20260427T18Z_MSC_RDPS_NetShortwaveRadiationFlux-Accum_Sfc_RLatLon0.09_PT035H.grib2 2026-04-27 20:49 517K
20260427T18Z_MSC_RDPS_PlanetaryBoundaryLayerHeight_Sfc_RLatLon0.09_PT035H.grib2 2026-04-27 20:49 1.1M
20260427T18Z_MSC_RDPS_Precip-Accum1h_Sfc_RLatLon0.09_PT035H.grib2 2026-04-27 20:49 1.3M
20260427T18Z_MSC_RDPS_Precip-Accum_Sfc_RLatLon0.09_PT035H.grib2 2026-04-27 20:49 1.8M
20260427T18Z_MSC_RDPS_PrecipRate_Sfc_RLatLon0.09_PT035H.grib2 2026-04-27 20:49 173K
20260427T18Z_MSC_RDPS_PrecipType-Instant_Sfc_RLatLon0.09_PT035H.grib2 2026-04-27 20:49 555K
20260427T18Z_MSC_RDPS_Pressure-Trend3h_Sfc_RLatLon0.09_PT035H.grib2 2026-04-27 20:49 1.2M
20260427T18Z_MSC_RDPS_Pressure_MSL_RLatLon0.09_PT035H.grib2 2026-04-27 20:49 323K
20260427T18Z_MSC_RDPS_Pressure_PVU-1.5_RLatLon0.09_PT035H.grib2 2026-04-27 20:49 2.5M
20260427T18Z_MSC_RDPS_Pressure_PVU-1_RLatLon0.09_PT035H.grib2 2026-04-27 20:49 2.4M
20260427T18Z_MSC_RDPS_Pressure_PVU-2_RLatLon0.09_PT035H.grib2 2026-04-27 20:49 2.4M
20260427T18Z_MSC_RDPS_Pressure_Sfc_RLatLon0.09_PT035H.grib2 2026-04-27 20:49 499K
20260427T18Z_MSC_RDPS_RadiativeTemp_Sfc_RLatLon0.09_PT035H.grib2 2026-04-27 20:49 295K
20260427T18Z_MSC_RDPS_Rain-Accum1h_Sfc_RLatLon0.09_PT035H.grib2 2026-04-27 20:49 613K
20260427T18Z_MSC_RDPS_Rain-Accum_Sfc_RLatLon0.09_PT035H.grib2 2026-04-27 20:49 1.4M
20260427T18Z_MSC_RDPS_RelativeHumidity_AGL-2m_RLatLon0.09_PT035H.grib2 2026-04-27 20:49 1.0M
20260427T18Z_MSC_RDPS_RelativeHumidity_IsbL-0010_RLatLon0.09_PT035H.grib2 2026-04-27 20:49 625K
20260427T18Z_MSC_RDPS_RelativeHumidity_IsbL-0020_RLatLon0.09_PT035H.grib2 2026-04-27 20:49 650K
20260427T18Z_MSC_RDPS_RelativeHumidity_IsbL-0030_RLatLon0.09_PT035H.grib2 2026-04-27 20:49 539K
20260427T18Z_MSC_RDPS_RelativeHumidity_IsbL-0050_RLatLon0.09_PT035H.grib2 2026-04-27 20:49 326K
20260427T18Z_MSC_RDPS_RelativeHumidity_IsbL-0100_RLatLon0.09_PT035H.grib2 2026-04-27 20:49 283K
20260427T18Z_MSC_RDPS_RelativeHumidity_IsbL-0150_RLatLon0.09_PT035H.grib2 2026-04-27 20:49 423K
20260427T18Z_MSC_RDPS_RelativeHumidity_IsbL-0175_RLatLon0.09_PT035H.grib2 2026-04-27 20:49 485K
20260427T18Z_MSC_RDPS_RelativeHumidity_IsbL-0200_RLatLon0.09_PT035H.grib2 2026-04-27 20:49 550K
20260427T18Z_MSC_RDPS_RelativeHumidity_IsbL-0225_RLatLon0.09_PT035H.grib2 2026-04-27 20:49 621K
20260427T18Z_MSC_RDPS_RelativeHumidity_IsbL-0250_RLatLon0.09_PT035H.grib2 2026-04-27 20:49 690K
20260427T18Z_MSC_RDPS_RelativeHumidity_IsbL-0275_RLatLon0.09_PT035H.grib2 2026-04-27 20:49 720K
20260427T18Z_MSC_RDPS_RelativeHumidity_IsbL-0300_RLatLon0.09_PT035H.grib2 2026-04-27 20:49 767K
20260427T18Z_MSC_RDPS_RelativeHumidity_IsbL-0350_RLatLon0.09_PT035H.grib2 2026-04-27 20:49 783K
20260427T18Z_MSC_RDPS_RelativeHumidity_IsbL-0400_RLatLon0.09_PT035H.grib2 2026-04-27 20:49 793K
20260427T18Z_MSC_RDPS_RelativeHumidity_IsbL-0450_RLatLon0.09_PT035H.grib2 2026-04-27 20:49 798K
20260427T18Z_MSC_RDPS_RelativeHumidity_IsbL-0500_RLatLon0.09_PT035H.grib2 2026-04-27 20:49 805K
20260427T18Z_MSC_RDPS_RelativeHumidity_IsbL-0550_RLatLon0.09_PT035H.grib2 2026-04-27 20:49 820K
20260427T18Z_MSC_RDPS_RelativeHumidity_IsbL-0600_RLatLon0.09_PT035H.grib2 2026-04-27 20:49 836K
20260427T18Z_MSC_RDPS_RelativeHumidity_IsbL-0650_RLatLon0.09_PT035H.grib2 2026-04-27 20:49 845K
20260427T18Z_MSC_RDPS_RelativeHumidity_IsbL-0700_RLatLon0.09_PT035H.grib2 2026-04-27 20:49 871K
20260427T18Z_MSC_RDPS_RelativeHumidity_IsbL-0750_RLatLon0.09_PT035H.grib2 2026-04-27 20:49 915K
20260427T18Z_MSC_RDPS_RelativeHumidity_IsbL-0800_RLatLon0.09_PT035H.grib2 2026-04-27 20:49 1.0M
20260427T18Z_MSC_RDPS_RelativeHumidity_IsbL-0850_RLatLon0.09_PT035H.grib2 2026-04-27 20:49 1.0M
20260427T18Z_MSC_RDPS_RelativeHumidity_IsbL-0875_RLatLon0.09_PT035H.grib2 2026-04-27 20:49 1.0M
20260427T18Z_MSC_RDPS_RelativeHumidity_IsbL-0900_RLatLon0.09_PT035H.grib2 2026-04-27 20:49 1.1M
20260427T18Z_MSC_RDPS_RelativeHumidity_IsbL-0925_RLatLon0.09_PT035H.grib2 2026-04-27 20:49 1.1M
20260427T18Z_MSC_RDPS_RelativeHumidity_IsbL-0950_RLatLon0.09_PT035H.grib2 2026-04-27 20:49 1.1M
20260427T18Z_MSC_RDPS_RelativeHumidity_IsbL-0970_RLatLon0.09_PT035H.grib2 2026-04-27 20:49 1.0M
20260427T18Z_MSC_RDPS_RelativeHumidity_IsbL-0985_RLatLon0.09_PT035H.grib2 2026-04-27 20:49 1.0M
20260427T18Z_MSC_RDPS_RelativeHumidity_IsbL-1000_RLatLon0.09_PT035H.grib2 2026-04-27 20:49 1.0M
20260427T18Z_MSC_RDPS_RelativeHumidity_IsbL-1015_RLatLon0.09_PT035H.grib2 2026-04-27 20:49 1.0M
20260427T18Z_MSC_RDPS_Runoff-Accum_Sfc_RLatLon0.09_PT035H.grib2 2026-04-27 20:49 61K
20260427T18Z_MSC_RDPS_SWEATIndex_Sfc_RLatLon0.09_PT035H.grib2 2026-04-27 20:49 2.4M
20260427T18Z_MSC_RDPS_SeeingIndex_EAtm_RLatLon0.09_PT035H.grib2 2026-04-27 20:49 1.0M
20260427T18Z_MSC_RDPS_SensibleHeatNetFlux_Sfc_RLatLon0.09_PT035H.grib2 2026-04-27 20:49 290K
20260427T18Z_MSC_RDPS_ShowalterIndex_IsbL-0500_RLatLon0.09_PT035H.grib2 2026-04-27 20:49 2.6M
20260427T18Z_MSC_RDPS_SkyTransparencyIndex_EAtm_RLatLon0.09_PT035H.grib2 2026-04-27 20:49 685K
20260427T18Z_MSC_RDPS_Snow-Accum1h_Sfc_RLatLon0.09_PT035H.grib2 2026-04-27 20:49 553K
20260427T18Z_MSC_RDPS_Snow-Accum_Sfc_RLatLon0.09_PT035H.grib2 2026-04-27 20:49 729K
20260427T18Z_MSC_RDPS_SnowDensity_Sfc_RLatLon0.09_PT035H.grib2 2026-04-27 20:49 183K
20260427T18Z_MSC_RDPS_SnowDepth_Sfc_RLatLon0.09_PT035H.grib2 2026-04-27 20:49 701K
20260427T18Z_MSC_RDPS_SoilTemp_DBS-0to10cm_RLatLon0.09_PT035H.grib2 2026-04-27 20:49 233K
20260427T18Z_MSC_RDPS_SoilTemp_Sfc_RLatLon0.09_PT035H.grib2 2026-04-27 20:49 277K
20260427T18Z_MSC_RDPS_SoilVolumetricIceContent_Sfc_RLatLon0.09_PT035H.grib2 2026-04-27 20:49 166K
20260427T18Z_MSC_RDPS_SoilVolumetricWaterContent_DBS-0to10cm_RLatLon0.09_PT035H.grib2 2026-04-27 20:49 264K
20260427T18Z_MSC_RDPS_SoilVolumetricWaterContent_DBS-0to1cm_RLatLon0.09_PT035H.grib2 2026-04-27 20:49 336K
20260427T18Z_MSC_RDPS_SpecificHumidity_AGL-120m_RLatLon0.09_PT035H.grib2 2026-04-27 20:49 479K
20260427T18Z_MSC_RDPS_SpecificHumidity_AGL-2m_RLatLon0.09_PT035H.grib2 2026-04-27 20:49 639K
20260427T18Z_MSC_RDPS_SpecificHumidity_AGL-40m_RLatLon0.09_PT035H.grib2 2026-04-27 20:49 483K
20260427T18Z_MSC_RDPS_SpecificHumidity_AGL-80m_RLatLon0.09_PT035H.grib2 2026-04-27 20:49 480K
20260427T18Z_MSC_RDPS_SpecificHumidity_IsbL-0001_RLatLon0.09_PT035H.grib2 2026-04-27 20:49 337K
20260427T18Z_MSC_RDPS_SpecificHumidity_IsbL-0005_RLatLon0.09_PT035H.grib2 2026-04-27 20:49 359K
20260427T18Z_MSC_RDPS_SpecificHumidity_IsbL-0010_RLatLon0.09_PT035H.grib2 2026-04-27 20:49 400K
20260427T18Z_MSC_RDPS_SpecificHumidity_IsbL-0020_RLatLon0.09_PT035H.grib2 2026-04-27 20:49 389K
20260427T18Z_MSC_RDPS_SpecificHumidity_IsbL-0030_RLatLon0.09_PT035H.grib2 2026-04-27 20:49 480K
20260427T18Z_MSC_RDPS_SpecificHumidity_IsbL-0050_RLatLon0.09_PT035H.grib2 2026-04-27 20:49 462K
20260427T18Z_MSC_RDPS_SpecificHumidity_IsbL-0100_RLatLon0.09_PT035H.grib2 2026-04-27 20:49 452K
20260427T18Z_MSC_RDPS_SpecificHumidity_IsbL-0150_RLatLon0.09_PT035H.grib2 2026-04-27 20:49 457K
20260427T18Z_MSC_RDPS_SpecificHumidity_IsbL-0175_RLatLon0.09_PT035H.grib2 2026-04-27 20:49 442K
20260427T18Z_MSC_RDPS_SpecificHumidity_IsbL-0200_RLatLon0.09_PT035H.grib2 2026-04-27 20:49 451K
20260427T18Z_MSC_RDPS_SpecificHumidity_IsbL-0225_RLatLon0.09_PT035H.grib2 2026-04-27 20:49 457K
20260427T18Z_MSC_RDPS_SpecificHumidity_IsbL-0250_RLatLon0.09_PT035H.grib2 2026-04-27 20:49 559K
20260427T18Z_MSC_RDPS_SpecificHumidity_IsbL-0275_RLatLon0.09_PT035H.grib2 2026-04-27 20:49 475K
20260427T18Z_MSC_RDPS_SpecificHumidity_IsbL-0300_RLatLon0.09_PT035H.grib2 2026-04-27 20:49 548K
20260427T18Z_MSC_RDPS_SpecificHumidity_IsbL-0350_RLatLon0.09_PT035H.grib2 2026-04-27 20:49 539K
20260427T18Z_MSC_RDPS_SpecificHumidity_IsbL-0400_RLatLon0.09_PT035H.grib2 2026-04-27 20:49 519K
20260427T18Z_MSC_RDPS_SpecificHumidity_IsbL-0450_RLatLon0.09_PT035H.grib2 2026-04-27 20:49 573K
20260427T18Z_MSC_RDPS_SpecificHumidity_IsbL-0500_RLatLon0.09_PT035H.grib2 2026-04-27 20:49 510K
20260427T18Z_MSC_RDPS_SpecificHumidity_IsbL-0550_RLatLon0.09_PT035H.grib2 2026-04-27 20:49 582K
20260427T18Z_MSC_RDPS_SpecificHumidity_IsbL-0600_RLatLon0.09_PT035H.grib2 2026-04-27 20:49 632K
20260427T18Z_MSC_RDPS_SpecificHumidity_IsbL-0650_RLatLon0.09_PT035H.grib2 2026-04-27 20:49 550K
20260427T18Z_MSC_RDPS_SpecificHumidity_IsbL-0700_RLatLon0.09_PT035H.grib2 2026-04-27 20:49 594K
20260427T18Z_MSC_RDPS_SpecificHumidity_IsbL-0750_RLatLon0.09_PT035H.grib2 2026-04-27 20:49 646K
20260427T18Z_MSC_RDPS_SpecificHumidity_IsbL-0800_RLatLon0.09_PT035H.grib2 2026-04-27 20:49 722K
20260427T18Z_MSC_RDPS_SpecificHumidity_IsbL-0850_RLatLon0.09_PT035H.grib2 2026-04-27 20:49 793K
20260427T18Z_MSC_RDPS_SpecificHumidity_IsbL-0875_RLatLon0.09_PT035H.grib2 2026-04-27 20:49 818K
20260427T18Z_MSC_RDPS_SpecificHumidity_IsbL-0900_RLatLon0.09_PT035H.grib2 2026-04-27 20:49 833K
20260427T18Z_MSC_RDPS_SpecificHumidity_IsbL-0925_RLatLon0.09_PT035H.grib2 2026-04-27 20:49 834K
20260427T18Z_MSC_RDPS_SpecificHumidity_IsbL-0950_RLatLon0.09_PT035H.grib2 2026-04-27 20:49 834K
20260427T18Z_MSC_RDPS_SpecificHumidity_IsbL-0970_RLatLon0.09_PT035H.grib2 2026-04-27 20:49 819K
20260427T18Z_MSC_RDPS_SpecificHumidity_IsbL-0985_RLatLon0.09_PT035H.grib2 2026-04-27 20:49 669K
20260427T18Z_MSC_RDPS_SpecificHumidity_IsbL-1000_RLatLon0.09_PT035H.grib2 2026-04-27 20:49 660K
20260427T18Z_MSC_RDPS_SpecificHumidity_IsbL-1015_RLatLon0.09_PT035H.grib2 2026-04-27 20:49 652K
20260427T18Z_MSC_RDPS_SpecificHumidity_Sfc_RLatLon0.09_PT035H.grib2 2026-04-27 20:49 291K
20260427T18Z_MSC_RDPS_StormRelativeHelicity_EtaL-10000_RLatLon0.09_PT035H.grib2 2026-04-27 20:49 1.1M
20260427T18Z_MSC_RDPS_StormSeverityIndex_EtaL-10000_RLatLon0.09_PT035H.grib2 2026-04-27 20:49 1.2M
20260427T18Z_MSC_RDPS_Thickness_IsbL-0850to0700_RLatLon0.09_PT035H.grib2 2026-04-27 20:49 176K
20260427T18Z_MSC_RDPS_Thickness_IsbL-1000to0500_RLatLon0.09_PT035H.grib2 2026-04-27 20:49 197K
20260427T18Z_MSC_RDPS_Thickness_IsbL-1000to0850_RLatLon0.09_PT035H.grib2 2026-04-27 20:49 259K
20260427T18Z_MSC_RDPS_TotalCloudCover_Sfc_RLatLon0.09_PT035H.grib2 2026-04-27 20:49 645K
20260427T18Z_MSC_RDPS_TotalTotalsIndex_Sfc_RLatLon0.09_PT035H.grib2 2026-04-27 20:49 2.4M
20260427T18Z_MSC_RDPS_UVIndex-ClearSky_Sfc_RLatLon0.09_PT035H.grib2 2026-04-27 20:49 97K
20260427T18Z_MSC_RDPS_UVIndex_Sfc_RLatLon0.09_PT035H.grib2 2026-04-27 20:49 165K
20260427T18Z_MSC_RDPS_UpwardLongwaveRadiationFlux_NTAtm_RLatLon0.09_PT035H.grib2 2026-04-27 20:49 486K
20260427T18Z_MSC_RDPS_UpwardShortwaveRadiationFlux_NTAtm_RLatLon0.09_PT035H.grib2 2026-04-27 20:49 139K
20260427T18Z_MSC_RDPS_VerticalVelocity_IsbL-0250_RLatLon0.09_PT035H.grib2 2026-04-27 20:49 585K
20260427T18Z_MSC_RDPS_VerticalVelocity_IsbL-0500_RLatLon0.09_PT035H.grib2 2026-04-27 20:49 546K
20260427T18Z_MSC_RDPS_VerticalVelocity_IsbL-0700_RLatLon0.09_PT035H.grib2 2026-04-27 20:49 590K
20260427T18Z_MSC_RDPS_VerticalVelocity_IsbL-0850_RLatLon0.09_PT035H.grib2 2026-04-27 20:49 656K
20260427T18Z_MSC_RDPS_VerticalWindShear_EtaL-6500_RLatLon0.09_PT035H.grib2 2026-04-27 20:49 1.2M
20260427T18Z_MSC_RDPS_WindChill_Sfc_RLatLon0.09_PT035H.grib2 2026-04-27 20:49 1.1M
20260427T18Z_MSC_RDPS_WindDir_AGL-10m_RLatLon0.09_PT035H.grib2 2026-04-27 20:49 963K
20260427T18Z_MSC_RDPS_WindDir_AGL-120m_RLatLon0.09_PT035H.grib2 2026-04-27 20:49 600K
20260427T18Z_MSC_RDPS_WindDir_AGL-40m_RLatLon0.09_PT035H.grib2 2026-04-27 20:49 633K
20260427T18Z_MSC_RDPS_WindDir_AGL-80m_RLatLon0.09_PT035H.grib2 2026-04-27 20:49 613K
20260427T18Z_MSC_RDPS_WindDir_IsbL-0001_RLatLon0.09_PT035H.grib2 2026-04-27 20:49 325K
20260427T18Z_MSC_RDPS_WindDir_IsbL-0005_RLatLon0.09_PT035H.grib2 2026-04-27 20:49 367K
20260427T18Z_MSC_RDPS_WindDir_IsbL-0010_RLatLon0.09_PT035H.grib2 2026-04-27 20:49 391K
20260427T18Z_MSC_RDPS_WindDir_IsbL-0020_RLatLon0.09_PT035H.grib2 2026-04-27 20:49 420K
20260427T18Z_MSC_RDPS_WindDir_IsbL-0030_RLatLon0.09_PT035H.grib2 2026-04-27 20:49 419K
20260427T18Z_MSC_RDPS_WindDir_IsbL-0050_RLatLon0.09_PT035H.grib2 2026-04-27 20:49 425K
20260427T18Z_MSC_RDPS_WindDir_IsbL-0100_RLatLon0.09_PT035H.grib2 2026-04-27 20:49 425K
20260427T18Z_MSC_RDPS_WindDir_IsbL-0150_RLatLon0.09_PT035H.grib2 2026-04-27 20:49 417K
20260427T18Z_MSC_RDPS_WindDir_IsbL-0175_RLatLon0.09_PT035H.grib2 2026-04-27 20:49 439K
20260427T18Z_MSC_RDPS_WindDir_IsbL-0200_RLatLon0.09_PT035H.grib2 2026-04-27 20:49 447K
20260427T18Z_MSC_RDPS_WindDir_IsbL-0225_RLatLon0.09_PT035H.grib2 2026-04-27 20:49 452K
20260427T18Z_MSC_RDPS_WindDir_IsbL-0250_RLatLon0.09_PT035H.grib2 2026-04-27 20:49 454K
20260427T18Z_MSC_RDPS_WindDir_IsbL-0275_RLatLon0.09_PT035H.grib2 2026-04-27 20:49 475K
20260427T18Z_MSC_RDPS_WindDir_IsbL-0300_RLatLon0.09_PT035H.grib2 2026-04-27 20:49 470K
20260427T18Z_MSC_RDPS_WindDir_IsbL-0350_RLatLon0.09_PT035H.grib2 2026-04-27 20:49 493K
20260427T18Z_MSC_RDPS_WindDir_IsbL-0400_RLatLon0.09_PT035H.grib2 2026-04-27 20:49 512K
20260427T18Z_MSC_RDPS_WindDir_IsbL-0450_RLatLon0.09_PT035H.grib2 2026-04-27 20:49 527K
20260427T18Z_MSC_RDPS_WindDir_IsbL-0500_RLatLon0.09_PT035H.grib2 2026-04-27 20:49 545K
20260427T18Z_MSC_RDPS_WindDir_IsbL-0550_RLatLon0.09_PT035H.grib2 2026-04-27 20:49 566K
20260427T18Z_MSC_RDPS_WindDir_IsbL-0600_RLatLon0.09_PT035H.grib2 2026-04-27 20:49 593K
20260427T18Z_MSC_RDPS_WindDir_IsbL-0650_RLatLon0.09_PT035H.grib2 2026-04-27 20:49 630K
20260427T18Z_MSC_RDPS_WindDir_IsbL-0700_RLatLon0.09_PT035H.grib2 2026-04-27 20:49 667K
20260427T18Z_MSC_RDPS_WindDir_IsbL-0750_RLatLon0.09_PT035H.grib2 2026-04-27 20:49 712K
20260427T18Z_MSC_RDPS_WindDir_IsbL-0800_RLatLon0.09_PT035H.grib2 2026-04-27 20:49 777K
20260427T18Z_MSC_RDPS_WindDir_IsbL-0850_RLatLon0.09_PT035H.grib2 2026-04-27 20:49 855K
20260427T18Z_MSC_RDPS_WindDir_IsbL-0875_RLatLon0.09_PT035H.grib2 2026-04-27 20:49 886K
20260427T18Z_MSC_RDPS_WindDir_IsbL-0900_RLatLon0.09_PT035H.grib2 2026-04-27 20:49 902K
20260427T18Z_MSC_RDPS_WindDir_IsbL-0925_RLatLon0.09_PT035H.grib2 2026-04-27 20:49 913K
20260427T18Z_MSC_RDPS_WindDir_IsbL-0950_RLatLon0.09_PT035H.grib2 2026-04-27 20:49 913K
20260427T18Z_MSC_RDPS_WindDir_IsbL-0970_RLatLon0.09_PT035H.grib2 2026-04-27 20:49 919K
20260427T18Z_MSC_RDPS_WindDir_IsbL-0985_RLatLon0.09_PT035H.grib2 2026-04-27 20:49 924K
20260427T18Z_MSC_RDPS_WindDir_IsbL-1000_RLatLon0.09_PT035H.grib2 2026-04-27 20:49 938K
20260427T18Z_MSC_RDPS_WindDir_IsbL-1015_RLatLon0.09_PT035H.grib2 2026-04-27 20:49 955K
20260427T18Z_MSC_RDPS_WindGust-Max_AGL-10m_RLatLon0.09_PT035H.grib2 2026-04-27 20:49 946K
20260427T18Z_MSC_RDPS_WindGust-Min_AGL-10m_RLatLon0.09_PT035H.grib2 2026-04-27 20:49 970K
20260427T18Z_MSC_RDPS_WindGust_AGL-10m_RLatLon0.09_PT035H.grib2 2026-04-27 20:49 1.0M
20260427T18Z_MSC_RDPS_WindSpeed_AGL-10m_RLatLon0.09_PT035H.grib2 2026-04-27 20:49 833K
20260427T18Z_MSC_RDPS_WindSpeed_AGL-120m_RLatLon0.09_PT035H.grib2 2026-04-27 20:49 549K
20260427T18Z_MSC_RDPS_WindSpeed_AGL-40m_RLatLon0.09_PT035H.grib2 2026-04-27 20:49 539K
20260427T18Z_MSC_RDPS_WindSpeed_AGL-80m_RLatLon0.09_PT035H.grib2 2026-04-27 20:49 549K
20260427T18Z_MSC_RDPS_WindSpeed_IsbL-0001_RLatLon0.09_PT035H.grib2 2026-04-27 20:49 255K
20260427T18Z_MSC_RDPS_WindSpeed_IsbL-0005_RLatLon0.09_PT035H.grib2 2026-04-27 20:49 301K
20260427T18Z_MSC_RDPS_WindSpeed_IsbL-0010_RLatLon0.09_PT035H.grib2 2026-04-27 20:49 406K
20260427T18Z_MSC_RDPS_WindSpeed_IsbL-0020_RLatLon0.09_PT035H.grib2 2026-04-27 20:49 328K
20260427T18Z_MSC_RDPS_WindSpeed_IsbL-0030_RLatLon0.09_PT035H.grib2 2026-04-27 20:49 324K
20260427T18Z_MSC_RDPS_WindSpeed_IsbL-0050_RLatLon0.09_PT035H.grib2 2026-04-27 20:49 460K
20260427T18Z_MSC_RDPS_WindSpeed_IsbL-0100_RLatLon0.09_PT035H.grib2 2026-04-27 20:49 489K
20260427T18Z_MSC_RDPS_WindSpeed_IsbL-0150_RLatLon0.09_PT035H.grib2 2026-04-27 20:49 389K
20260427T18Z_MSC_RDPS_WindSpeed_IsbL-0175_RLatLon0.09_PT035H.grib2 2026-04-27 20:49 415K
20260427T18Z_MSC_RDPS_WindSpeed_IsbL-0200_RLatLon0.09_PT035H.grib2 2026-04-27 20:49 453K
20260427T18Z_MSC_RDPS_WindSpeed_IsbL-0225_RLatLon0.09_PT035H.grib2 2026-04-27 20:49 459K
20260427T18Z_MSC_RDPS_WindSpeed_IsbL-0250_RLatLon0.09_PT035H.grib2 2026-04-27 20:49 463K
20260427T18Z_MSC_RDPS_WindSpeed_IsbL-0275_RLatLon0.09_PT035H.grib2 2026-04-27 20:49 481K
20260427T18Z_MSC_RDPS_WindSpeed_IsbL-0300_RLatLon0.09_PT035H.grib2 2026-04-27 20:49 480K
20260427T18Z_MSC_RDPS_WindSpeed_IsbL-0350_RLatLon0.09_PT035H.grib2 2026-04-27 20:49 472K
20260427T18Z_MSC_RDPS_WindSpeed_IsbL-0400_RLatLon0.09_PT035H.grib2 2026-04-27 20:49 471K
20260427T18Z_MSC_RDPS_WindSpeed_IsbL-0450_RLatLon0.09_PT035H.grib2 2026-04-27 20:49 469K
20260427T18Z_MSC_RDPS_WindSpeed_IsbL-0500_RLatLon0.09_PT035H.grib2 2026-04-27 20:49 467K
20260427T18Z_MSC_RDPS_WindSpeed_IsbL-0550_RLatLon0.09_PT035H.grib2 2026-04-27 20:49 467K
20260427T18Z_MSC_RDPS_WindSpeed_IsbL-0600_RLatLon0.09_PT035H.grib2 2026-04-27 20:49 593K
20260427T18Z_MSC_RDPS_WindSpeed_IsbL-0650_RLatLon0.09_PT035H.grib2 2026-04-27 20:49 611K
20260427T18Z_MSC_RDPS_WindSpeed_IsbL-0700_RLatLon0.09_PT035H.grib2 2026-04-27 20:49 632K
20260427T18Z_MSC_RDPS_WindSpeed_IsbL-0750_RLatLon0.09_PT035H.grib2 2026-04-27 20:49 660K
20260427T18Z_MSC_RDPS_WindSpeed_IsbL-0800_RLatLon0.09_PT035H.grib2 2026-04-27 20:49 704K
20260427T18Z_MSC_RDPS_WindSpeed_IsbL-0850_RLatLon0.09_PT035H.grib2 2026-04-27 20:49 762K
20260427T18Z_MSC_RDPS_WindSpeed_IsbL-0875_RLatLon0.09_PT035H.grib2 2026-04-27 20:49 828K
20260427T18Z_MSC_RDPS_WindSpeed_IsbL-0900_RLatLon0.09_PT035H.grib2 2026-04-27 20:49 844K
20260427T18Z_MSC_RDPS_WindSpeed_IsbL-0925_RLatLon0.09_PT035H.grib2 2026-04-27 20:49 857K
20260427T18Z_MSC_RDPS_WindSpeed_IsbL-0950_RLatLon0.09_PT035H.grib2 2026-04-27 20:49 857K
20260427T18Z_MSC_RDPS_WindSpeed_IsbL-0970_RLatLon0.09_PT035H.grib2 2026-04-27 20:49 860K
20260427T18Z_MSC_RDPS_WindSpeed_IsbL-0985_RLatLon0.09_PT035H.grib2 2026-04-27 20:49 851K
20260427T18Z_MSC_RDPS_WindSpeed_IsbL-1000_RLatLon0.09_PT035H.grib2 2026-04-27 20:49 844K
20260427T18Z_MSC_RDPS_WindSpeed_IsbL-1015_RLatLon0.09_PT035H.grib2 2026-04-27 20:49 834K
20260427T18Z_MSC_RDPS_WindU_AGL-10m_RLatLon0.09_PT035H.grib2 2026-04-27 20:49 377K
20260427T18Z_MSC_RDPS_WindU_AGL-120m_RLatLon0.09_PT035H.grib2 2026-04-27 20:49 416K
20260427T18Z_MSC_RDPS_WindU_AGL-40m_RLatLon0.09_PT035H.grib2 2026-04-27 20:49 418K
20260427T18Z_MSC_RDPS_WindU_AGL-80m_RLatLon0.09_PT035H.grib2 2026-04-27 20:49 417K
20260427T18Z_MSC_RDPS_WindU_IsbL-0001_RLatLon0.09_PT035H.grib2 2026-04-27 20:49 294K
20260427T18Z_MSC_RDPS_WindU_IsbL-0005_RLatLon0.09_PT035H.grib2 2026-04-27 20:49 334K
20260427T18Z_MSC_RDPS_WindU_IsbL-0010_RLatLon0.09_PT035H.grib2 2026-04-27 20:49 343K
20260427T18Z_MSC_RDPS_WindU_IsbL-0020_RLatLon0.09_PT035H.grib2 2026-04-27 20:49 356K
20260427T18Z_MSC_RDPS_WindU_IsbL-0030_RLatLon0.09_PT035H.grib2 2026-04-27 20:49 353K
20260427T18Z_MSC_RDPS_WindU_IsbL-0050_RLatLon0.09_PT035H.grib2 2026-04-27 20:49 382K
20260427T18Z_MSC_RDPS_WindU_IsbL-0100_RLatLon0.09_PT035H.grib2 2026-04-27 20:49 346K
20260427T18Z_MSC_RDPS_WindU_IsbL-0150_RLatLon0.09_PT035H.grib2 2026-04-27 20:49 405K
20260427T18Z_MSC_RDPS_WindU_IsbL-0175_RLatLon0.09_PT035H.grib2 2026-04-27 20:49 429K
20260427T18Z_MSC_RDPS_WindU_IsbL-0200_RLatLon0.09_PT035H.grib2 2026-04-27 20:49 444K
20260427T18Z_MSC_RDPS_WindU_IsbL-0225_RLatLon0.09_PT035H.grib2 2026-04-27 20:49 350K
20260427T18Z_MSC_RDPS_WindU_IsbL-0250_RLatLon0.09_PT035H.grib2 2026-04-27 20:49 352K
20260427T18Z_MSC_RDPS_WindU_IsbL-0275_RLatLon0.09_PT035H.grib2 2026-04-27 20:49 366K
20260427T18Z_MSC_RDPS_WindU_IsbL-0300_RLatLon0.09_PT035H.grib2 2026-04-27 20:49 362K
20260427T18Z_MSC_RDPS_WindU_IsbL-0350_RLatLon0.09_PT035H.grib2 2026-04-27 20:49 370K
20260427T18Z_MSC_RDPS_WindU_IsbL-0400_RLatLon0.09_PT035H.grib2 2026-04-27 20:49 474K
20260427T18Z_MSC_RDPS_WindU_IsbL-0450_RLatLon0.09_PT035H.grib2 2026-04-27 20:49 472K
20260427T18Z_MSC_RDPS_WindU_IsbL-0500_RLatLon0.09_PT035H.grib2 2026-04-27 20:49 471K
20260427T18Z_MSC_RDPS_WindU_IsbL-0550_RLatLon0.09_PT035H.grib2 2026-04-27 20:49 472K
20260427T18Z_MSC_RDPS_WindU_IsbL-0600_RLatLon0.09_PT035H.grib2 2026-04-27 20:49 463K
20260427T18Z_MSC_RDPS_WindU_IsbL-0650_RLatLon0.09_PT035H.grib2 2026-04-27 20:49 479K
20260427T18Z_MSC_RDPS_WindU_IsbL-0700_RLatLon0.09_PT035H.grib2 2026-04-27 20:49 500K
20260427T18Z_MSC_RDPS_WindU_IsbL-0750_RLatLon0.09_PT035H.grib2 2026-04-27 20:49 525K
20260427T18Z_MSC_RDPS_WindU_IsbL-0800_RLatLon0.09_PT035H.grib2 2026-04-27 20:49 565K
20260427T18Z_MSC_RDPS_WindU_IsbL-0850_RLatLon0.09_PT035H.grib2 2026-04-27 20:49 617K
20260427T18Z_MSC_RDPS_WindU_IsbL-0875_RLatLon0.09_PT035H.grib2 2026-04-27 20:49 636K
20260427T18Z_MSC_RDPS_WindU_IsbL-0900_RLatLon0.09_PT035H.grib2 2026-04-27 20:49 647K
20260427T18Z_MSC_RDPS_WindU_IsbL-0925_RLatLon0.09_PT035H.grib2 2026-04-27 20:49 654K
20260427T18Z_MSC_RDPS_WindU_IsbL-0950_RLatLon0.09_PT035H.grib2 2026-04-27 20:49 651K
20260427T18Z_MSC_RDPS_WindU_IsbL-0970_RLatLon0.09_PT035H.grib2 2026-04-27 20:49 651K
20260427T18Z_MSC_RDPS_WindU_IsbL-0985_RLatLon0.09_PT035H.grib2 2026-04-27 20:49 645K
20260427T18Z_MSC_RDPS_WindU_IsbL-1000_RLatLon0.09_PT035H.grib2 2026-04-27 20:49 640K
20260427T18Z_MSC_RDPS_WindU_IsbL-1015_RLatLon0.09_PT035H.grib2 2026-04-27 20:49 633K
20260427T18Z_MSC_RDPS_WindV_AGL-10m_RLatLon0.09_PT035H.grib2 2026-04-27 20:49 429K
20260427T18Z_MSC_RDPS_WindV_AGL-120m_RLatLon0.09_PT035H.grib2 2026-04-27 20:49 532K
20260427T18Z_MSC_RDPS_WindV_AGL-40m_RLatLon0.09_PT035H.grib2 2026-04-27 20:49 535K
20260427T18Z_MSC_RDPS_WindV_AGL-80m_RLatLon0.09_PT035H.grib2 2026-04-27 20:49 533K
20260427T18Z_MSC_RDPS_WindV_IsbL-0001_RLatLon0.09_PT035H.grib2 2026-04-27 20:49 295K
20260427T18Z_MSC_RDPS_WindV_IsbL-0005_RLatLon0.09_PT035H.grib2 2026-04-27 20:49 291K
20260427T18Z_MSC_RDPS_WindV_IsbL-0010_RLatLon0.09_PT035H.grib2 2026-04-27 20:49 303K
20260427T18Z_MSC_RDPS_WindV_IsbL-0020_RLatLon0.09_PT035H.grib2 2026-04-27 20:49 320K
20260427T18Z_MSC_RDPS_WindV_IsbL-0030_RLatLon0.09_PT035H.grib2 2026-04-27 20:49 318K
20260427T18Z_MSC_RDPS_WindV_IsbL-0050_RLatLon0.09_PT035H.grib2 2026-04-27 20:49 347K
20260427T18Z_MSC_RDPS_WindV_IsbL-0100_RLatLon0.09_PT035H.grib2 2026-04-27 20:49 341K
20260427T18Z_MSC_RDPS_WindV_IsbL-0150_RLatLon0.09_PT035H.grib2 2026-04-27 20:49 403K
20260427T18Z_MSC_RDPS_WindV_IsbL-0175_RLatLon0.09_PT035H.grib2 2026-04-27 20:49 332K
20260427T18Z_MSC_RDPS_WindV_IsbL-0200_RLatLon0.09_PT035H.grib2 2026-04-27 20:49 344K
20260427T18Z_MSC_RDPS_WindV_IsbL-0225_RLatLon0.09_PT035H.grib2 2026-04-27 20:49 348K
20260427T18Z_MSC_RDPS_WindV_IsbL-0250_RLatLon0.09_PT035H.grib2 2026-04-27 20:49 375K
20260427T18Z_MSC_RDPS_WindV_IsbL-0275_RLatLon0.09_PT035H.grib2 2026-04-27 20:49 388K
20260427T18Z_MSC_RDPS_WindV_IsbL-0300_RLatLon0.09_PT035H.grib2 2026-04-27 20:49 386K
20260427T18Z_MSC_RDPS_WindV_IsbL-0350_RLatLon0.09_PT035H.grib2 2026-04-27 20:49 370K
20260427T18Z_MSC_RDPS_WindV_IsbL-0400_RLatLon0.09_PT035H.grib2 2026-04-27 20:49 371K
20260427T18Z_MSC_RDPS_WindV_IsbL-0450_RLatLon0.09_PT035H.grib2 2026-04-27 20:49 474K
20260427T18Z_MSC_RDPS_WindV_IsbL-0500_RLatLon0.09_PT035H.grib2 2026-04-27 20:49 472K
20260427T18Z_MSC_RDPS_WindV_IsbL-0550_RLatLon0.09_PT035H.grib2 2026-04-27 20:49 472K
20260427T18Z_MSC_RDPS_WindV_IsbL-0600_RLatLon0.09_PT035H.grib2 2026-04-27 20:49 479K
20260427T18Z_MSC_RDPS_WindV_IsbL-0650_RLatLon0.09_PT035H.grib2 2026-04-27 20:49 494K
20260427T18Z_MSC_RDPS_WindV_IsbL-0700_RLatLon0.09_PT035H.grib2 2026-04-27 20:49 512K
20260427T18Z_MSC_RDPS_WindV_IsbL-0750_RLatLon0.09_PT035H.grib2 2026-04-27 20:49 535K
20260427T18Z_MSC_RDPS_WindV_IsbL-0800_RLatLon0.09_PT035H.grib2 2026-04-27 20:49 573K
20260427T18Z_MSC_RDPS_WindV_IsbL-0850_RLatLon0.09_PT035H.grib2 2026-04-27 20:49 622K
20260427T18Z_MSC_RDPS_WindV_IsbL-0875_RLatLon0.09_PT035H.grib2 2026-04-27 20:49 640K
20260427T18Z_MSC_RDPS_WindV_IsbL-0900_RLatLon0.09_PT035H.grib2 2026-04-27 20:49 644K
20260427T18Z_MSC_RDPS_WindV_IsbL-0925_RLatLon0.09_PT035H.grib2 2026-04-27 20:49 653K
20260427T18Z_MSC_RDPS_WindV_IsbL-0950_RLatLon0.09_PT035H.grib2 2026-04-27 20:49 653K
20260427T18Z_MSC_RDPS_WindV_IsbL-0970_RLatLon0.09_PT035H.grib2 2026-04-27 20:49 794K
20260427T18Z_MSC_RDPS_WindV_IsbL-0985_RLatLon0.09_PT035H.grib2 2026-04-27 20:49 787K
20260427T18Z_MSC_RDPS_WindV_IsbL-1000_RLatLon0.09_PT035H.grib2 2026-04-27 20:49 781K
20260427T18Z_MSC_RDPS_WindV_IsbL-1015_RLatLon0.09_PT035H.grib2 2026-04-27 20:49 820K